BREEZE-M DEB (TANK), 45988

Orbit data source: Space-Track

BREEZE-M DEB (TANK), 45988 is space debris in HEO originally from a launch on Thu, 30 Jul 2020 UTC launched from the Tyuratam Missile And Space Complex (TTMTR). Debris objects in space refer to the collection of defunct objects orbiting the Earth. Examples of debris include non-operational satellites, rocket bodies, and fragments generated from explosions, collisions, or faulty payload assembly.

Loading next visibility...
Identifier
45988, 2020-053D
Orbit
HEO
Country
Flag of CISCIS
Related business
Manufacturer
Khrunichev
Mission
Spacecraft
Bus & Motor
BRIZ TANK, Unknown motor
Mass
~1,000 kg wet, 1,000 kg dry
Launch date (UTC)
2020-07-30 (5 years ago)
Launch vehicle
Unknown
Launch site
Tyuratam Missile And Space Complex (TTMTR)
Object type
Payload
Rocket body
Debris
Shape & HBR
Torus, Unknown HBR
Radar Cross Section
8.218 m², Large (>1 m²)

Expand to show TLE details & history
Last TLE update: 1 day ago

TLE from 1 day ago
0 BREEZE-M DEB (TANK)
1 45988U 20053D   25307.99993275  .00000930  00000-0  86337-3 0  9996
2 45988  49.5698 113.7515 6204000 213.8803  83.7126  3.63981955 68568
Epoch: 2025-11-03T23:59Z
TLE epoch observation values (Epoch: 2025-11-03T23:59:54.189Z)
Latitude
-0.00003°
Longitude
70.24701°
Altitude
16,270.209 km
Speed
3.588 km/s
True Right ascension
07h 34m 51s
True Declination
0° 00' 00"
Sunlit
Object was in daylight at epoch
Visualization orbit readout
Latitude
Unknown
Longitude
Unknown
Altitude
Unknown
Speed
Unknown
Apparent Right ascension
Unknown
Apparent Declination
Unknown
Sunlit
N/A
Visualization observer readout
Local Sidereal Time
04:49:49
Azimuth
Unknown
Elevation
Unknown
Doppler factor
Unknown
Orbital elements
Apogee altitude
22,550.017 km
Perigee altitude
398.663 km
Semi-major axis
17,852.477 km
Eccentricity
0.6204
Inclination
49.5698°
RAAN
113.7515°
Arg. of periapsis
213.8803°
True anomaly
146.18055°
Mean anomaly
83.7126°
Eccentric anomaly
115.73353°
Mean motion
0.9099 °/min
Orbital period
395.65 mins
BSTAR
0.00086337
Loading maneuver chart data...
Computing Atmospheric mass density...
Loading historical data...
Loading historical data...
Loading historical data...
Loading historical data...
Loading historical data...
Loading historical data...
Loading historical data...
Other satellites on launch #53 in the year 2020 (2020-07-30 UTC)

Documentation

Showing up to 5 results
|